Simultaneous Nadir Overpasses (SNOs) Predictions

Prediction of SNOs between GOES-15 and LANDSAT-8 Satellite Orbit:

Table of predicted SNOs for the next 14.0 days since TLE Epoch: 5/30/2025
Index Date Time (GOES-15) GOES-15 Lat,Lon LANDSAT-8 Lat,Lon Distance(km) Time Diff (sec)
1 05/31/2025 06:10:53 -0.17, 61.47 -0.00, 60.56 103.28 80
2 06/02/2025 05:56:01 -0.19, 61.45 -0.61, 63.53 235.67 80
3 06/02/2025 18:20:05 0.16, 61.45 -0.51, 58.34 354.29 80
4 06/04/2025 18:05:14 0.17, 61.43 0.17, 61.29 15.37 80
5 06/06/2025 17:53:02 0.18, 61.41 0.80, 64.25 323.97 80
6 06/07/2025 06:16:57 -0.15, 61.39 0.31, 59.10 259.75 80
7 06/09/2025 06:02:05 -0.16, 61.38 -0.33, 62.06 78.52 80
8 06/11/2025 05:49:52 -0.16, 61.37 -0.93, 65.04 416.02 80
9 06/11/2025 18:13:55 0.13, 61.39 -0.17, 59.85 174.78 80
10 06/13/2025 17:59:02 0.15, 61.39 0.45, 62.81 162.16 80
